{"data":{"norad_id":64344,"intl_designator":"2025-126A","name":"STARLINK-33977","alt_names":[],"object_type":"PAYLOAD","status":"ACTIVE","operator":null,"country":"US","launch_date":"2025-06-13","launch_site_code":"AFWTR","launch_vehicle":null,"mission":null,"orbit_class":"UNKNOWN","rcs_meters":null,"size_class":null,"mass_kg":null,"dimensions":null,"purposes":["comms"],"wikipedia_slug":null,"has_3d_model":false,"image_url":null,"decayed_at":null,"tle_current":{"epoch":"2026-05-25T03:07:47.097408Z","epoch_age_seconds":54050,"freshness":"FRESH","line1":"1 64344U 25126A   26145.13040622  .00001678  00000+0  14836-3 0  9999","line2":"2 64344  70.0006 201.6583 0003825 267.6032  92.4690 14.98335144 53342","mean_motion":14.98335144,"eccentricity":0.0003825,"inclination_deg":70.0006,"raan_deg":201.6583,"arg_perigee_deg":267.6032,"mean_anomaly_deg":92.469,"bstar":0.00014836,"rev_number":5334,"period_min":96.106669176546,"perigee_km":569.38154089803,"apogee_km":574.69842629048,"semimajor_km":6950.1769835943,"source":"CELESTRAK","updated_at":"2026-05-25T13:38:20.399702Z"}}}